This demonstration page uses our WeatherBlox Daily Observations layout. Learn more.

Left ArrowRight Arrow

41.86663, -103.66717

Hourly Observations for October 9, 2015

Temp ( °F °C ) Dew Point ( °F °C ) Humidity (%) Winds ( mph kmh ) Pressure ( in mb ) Visibility ( mi km ) Precip ( " mm )
12:53 am 00:53 Clear 43 6.1 41 5 93 93 NE 5 7 30.34 1027 7 11 N/A
1:36 am 01:36 Partly Cloudy with Mist and Fog 44 6.7 42 5.6 93 93 NE 3 6 30.39 1029 6 10 N/A
1:53 am 01:53 Mostly Cloudy with Mist and Fog 44 6.7 42 5.6 93 93 N 3 6 30.34 1027 6 10 N/A
2:16 am 02:16 Cloudy with Mist and Fog 44 6.7 43 6.1 96 96 N N/A 30.39 1029 6 10 N/A
2:21 am 02:21 Cloudy with Mist and Fog 45 7.2 43 6.1 93 93 N N/A 30.39 1029 2 2 N/A
2:28 am 02:28 Mostly Cloudy with Fog 45 7 45 7 100 100 N N/A 30.39 1029 0 0 N/A
2:53 am 02:53 Mostly Cloudy with Fog 44 6.7 44 6.7 100 100 N N/A 30.34 1027 0 0 N/A
3:53 am 03:53 Mostly Cloudy with Fog 42 5.6 41 5 96 96 N N/A 30.33 1027 0 0 N/A
4:23 am 04:23 Mostly Cloudy with Fog 41 5 40 4.4 96 96 N N/A 30.42 1030 1 1 N/A
4:28 am 04:28 Mostly Cloudy with Mist and Fog 41 5 39 4 93 93 N N/A 30.42 1030 1 2 N/A
4:38 am 04:38 Mostly Cloudy with Mist and Fog 41 5 39 4 93 93 E 3 6 30.42 1030 1 1 N/A
4:53 am 04:53 Mostly Cloudy with Fog 41 5 40 4.4 96 96 N N/A 30.34 1028 1 1 N/A
5:09 am 05:09 Mostly Cloudy with Fog 41 5 40 4.4 96 96 N N/A 30.42 1030 0 0 N/A
5:18 am 05:18 Mostly Cloudy with Fog 43 6 41 5 93 93 E 3 6 30.39 1029 1 1 N/A
5:53 am 05:53 Cloudy with Mist and Fog 41 5 40 4.4 96 96 N N/A 30.35 1028 2 2 N/A
5:56 am 05:56 Cloudy with Mist and Fog 42 5.6 40 4.4 92 92 N N/A 30.39 1029 3 5 N/A
6:10 am 06:10 Mostly Cloudy with Fog 41 5 39 4 93 93 N N/A 30.42 1030 0 0 N/A
6:53 am 06:53 Mostly Cloudy with Fog 41 5 40 4.4 96 96 SE 5 7 30.37 1028 0 0 N/A
7:53 am 07:53 Mostly Cloudy with Fog 43 6.1 42 5.6 97 97 E 5 7 30.36 1028 1 1 N/A
8:10 am 08:10 Mostly Cloudy with Mist and Fog 45 7 45 7 100 100 ESE 5 7 30.39 1029 5 8 N/A
8:24 am 08:24 Mostly Cloudy with Mist and Fog 45 7 43 6 93 93 ESE 7 11 30.39 1029 3 4 N/A
8:32 am 08:32 Cloudy with Mist and Fog 45 7 45 7 100 100 SE 6 9 30.39 1029 1 1 N/A
8:41 am 08:41 Cloudy with Fog 44 6.7 44 6.7 100 100 ESE 6 9 30.39 1029 1 1 N/A
8:53 am 08:53 Cloudy with Mist and Fog 46 7.8 45 7.2 96 96 ESE 7 11 30.35 1028 1 1 N/A
9:03 am 09:03 Cloudy with Mist and Fog 46 8 45 7 93 93 ESE 8 13 30.36 1028 2 3 N/A
9:05 am 09:05 Cloudy with Mist and Fog 46 7.8 45 7.2 96 96 E 8 13 30.36 1028 3 5 N/A
9:24 am 09:24 Mostly Cloudy with Mist and Fog 46 8 46 8 100 100 SE 7 11 30.36 1028 3 4 N/A
9:31 am 09:31 Mostly Cloudy with Mist and Fog 48 8.9 46 7.8 93 93 E 9 15 30.36 1028 2 2 N/A
9:43 am 09:43 Cloudy with Mist and Fog 48 8.9 47 8.3 96 96 E 9 15 30.36 1028 3 4 N/A
9:50 am 09:50 Mostly Cloudy with Mist and Fog 48 9 48 9 100 100 ESE 8 13 30.36 1028 4 6 N/A
9:53 am 09:53 Mostly Cloudy with Mist and Fog 50 10 48 8.9 93 93 ESE 8 13 30.33 1027 6 10 N/A
10:03 am 10:03 Partly Cloudy 52 11 48 9 88 88 ESE 8 13 30.33 1027 10 16 N/A
10:53 am 10:53 Sunny 60 15.6 50 10 70 70 SE 10 17 30.29 1026 10 16 N/A
11:53 am 11:53 Sunny 66 18.9 49 9.4 54 54 S 9 15 30.26 1025 10 16 N/A
12:53 pm 12:53 Sunny 69 20.6 48 8.9 47 47 S 13 20 30.21 1023 10 16 N/A
1:53 pm 13:53 Sunny 72 22.2 47 8.3 41 41 SSW 12 19 30.15 1021 10 16 N/A
2:53 pm 14:53 Sunny 74 23.3 47 8.3 38 38 SSE 9 15 30.11 1020 10 16 N/A
3:53 pm 15:53 Sunny 74 23.3 46 7.8 37 37 SE 8 13 30.11 1020 10 16 N/A
4:53 pm 16:53 Sunny 73 22.8 45 7.2 37 37 SSE 10 17 30.09 1019 10 16 N/A
5:53 pm 17:53 Sunny 69 20.6 49 9.4 49 49 ESE 9 15 30.09 1019 10 16 N/A
6:53 pm 18:53 Clear 61 16.1 49 9.4 65 65 E 8 13 30.11 1020 10 16 N/A
7:53 pm 19:53 Clear 59 15 49 9.4 69 69 ESE 9 15 30.12 1020 10 16 N/A
8:53 pm 20:53 Clear 56 13.3 48 8.9 75 75 E 6 9 30.12 1020 10 16 N/A
9:53 pm 21:53 Clear 54 12.2 48 8.9 80 80 E 9 15 30.11 1020 10 16 N/A
10:53 pm 22:53 Clear 53 11.7 48 8.9 83 83 E 8 13 30.07 1018 10 16 N/A
11:53 pm 23:53 Clear 51 10.6 46 7.8 83 83 E 5 7 30.06 1018 10 16 N/A

Powered by AerisWeather